Home   Weather   Emmen   Past weeks

Flag for Netherlands Past Weather in Emmen, Netherlands — Yesterday and Last 2 Weeks

Now
57 °F

Cool.


Feels Like: 57 °F
Forecast: 49 / 73 °F
Wind: 1 mph from West

Location: Meppen

Current Time: Sep 1, 2016 at 5:51:09 AM

Latest Report: Sep 1, 2016 at 4:00 AM


Visibility: 1 mi

Pressure: 30.14 "Hg

Humidity: 92%

Dew Point: 54 °F

Location of EmmenLocation

Past Weather in Emmen — Graph

°F

Emmen Temperature Yesterday

Maximum temperature yesterday: 78 °F (at 4:00 PM)
Minimum temperature yesterday: 47 °F (at 7:00 AM)
Average temperature yesterday: 63 °F

High & Low Weather Summary for the Past Weeks

 TemperatureHumidityPressure
High89 °F (Aug 25, 6:00 PM)97% (Aug 17, 6:00 AM)30.33 "Hg (Aug 17, 6:00 AM)
Low45 °F (Aug 30, 7:00 AM)33% (Aug 19, 4:00 PM)29.78 "Hg (Aug 19, 7:00 PM)
Average66 °F75%30.05 "Hg
* Reported Aug 17 4:00 AM — Sep 1 4:00 AM, Emmen, Weather by CustomWeather, © 2016

Note: Actual official high and low records may vary slightly from our data, if they occured in-between our weather recording intervals... More about our weather records

Advertising

Emmen Weather History for the Previous 24 Hours

Scroll right to see more
 ConditionsComfort  
Time TempWeatherWind HumidityBarometerVisibility
4:00 AM
Thu, Sep 1
57 °FCool.1 mph92%30.14 "Hg1 mi
3:00 AM57 °FCool.1 mph91%30.13 "Hg2 mi
1:00 AM59 °FCool.1 mph88%30.13 "Hg3 mi
12:00 AM58 °FCool.1 mph89%30.12 "Hg4 mi
10:00 PM
Wed, Aug 31
64 °FMild.1 mph76%30.12 "Hg5 mi
9:00 PM68 °FMild.1 mph64%30.11 "Hg3 mi
7:00 PM76 °FMild.2 mph41%30.09 "Hg4 mi
6:00 PM76 °FMild.2 mph39%30.09 "Hg4 mi
4:00 PM78 °FPleasantly warm.5 mph36%30.10 "Hg4 mi
3:00 PM78 °FPleasantly warm.2 mph34%30.11 "Hg4 mi
1:00 PM75 °FPassing clouds.2 mph37%30.13 "Hg28 mi
12:00 PM73 °FPassing clouds.N/A42%30.14 "Hg28 mi
11:00 AMN/APassing clouds.5 mphN/AN/A11 mi
10:00 AM65 °FPassing clouds.1 mph62%30.15 "Hg22 mi
9:00 AM60 °FPassing clouds.1 mph76%30.16 "Hg19 mi
7:00 AM47 °FFog.No wind97%30.19 "Hg11 mi
6:00 AM48 °FCool.No wind96%30.19 "Hg0 mi
Weather by CustomWeather, © 2016

See weather overviewHow to use our weather pages